Sigfox identifier Datetime Temperature Humidity SNR
003A58BA 2019-04-23 14:57:49 16.6 29 23.6
003A58BA 2019-04-23 14:23:19 16.5 29 23.5
003A58BA 2019-04-23 13:48:51 16.3 29 23.4
003A58BA 2019-04-23 13:14:21 16.2 29 23.1
003A58BA 2019-04-23 12:39:51 16 29 23
003A58BA 2019-04-23 12:05:21 15.9 29 22.5
003A58BA 2019-04-23 11:30:53 15.8 29 22.3
003A58BA 2019-04-23 10:56:24 15.7 29 22
003A58BA 2019-04-23 10:21:56 15.6 29 21.2
003A58BA 2019-04-23 09:47:28 15.6 29 21.1
003A58BA 2019-04-23 09:12:59 15.6 29 19.8
003A58BA 2019-04-23 08:38:31 15.6 28 18.7
003A58BA 2019-04-23 08:04:04 15.6 28 17
003A58BA 2019-04-23 07:29:35 15.6 28 16.8
003A58BA 2019-04-23 06:55:06 15.6 28 16.7
003A58BA 2019-04-23 06:20:38 15.6 28 16.6
003A58BA 2019-04-23 05:46:11 15.6 28 16.4
003A58BA 2019-04-23 05:11:44 15.5 28 16.5
003A58BA 2019-04-23 04:37:15 15.6 28 16.1
003A58BA 2019-04-23 04:02:48 15.6 28 15.8
003A58BA 2019-04-23 03:28:21 15.6 28 15.8
003A58BA 2019-04-23 02:53:55 15.6 28 16
003A58BA 2019-04-23 02:19:27 15.6 28 15.9
003A58BA 2019-04-23 01:45:02 15.6 28 16.1
003A58BA 2019-04-23 01:10:33 15.6 28 16.4
003A58BA 2019-04-23 00:36:06 15.6 28 16.4
003A58BA 2019-04-23 00:01:39 15.6 28 16.7
003A58BA 2019-04-22 23:27:17 15.6 28 16.8
003A58BA 2019-04-22 22:52:49 15.7 28 17
003A58BA 2019-04-22 22:18:20 15.7 28 17.1
003A58BA 2019-04-22 21:43:52 15.8 28 17.2
003A58BA 2019-04-22 21:09:27 15.8 28 17.4
003A58BA 2019-04-22 20:34:56 15.8 28 17.3
003A58BA 2019-04-22 20:00:30 15.9 28 17.5
003A58BA 2019-04-22 19:26:03 15.9 28 17.5
003A58BA 2019-04-22 18:51:36 16 28 17.8
003A58BA 2019-04-22 18:17:08 16 28 17.9
003A58BA 2019-04-22 17:42:41 16 28 17.8
003A58BA 2019-04-22 17:08:14 16 28 17.7
003A58BA 2019-04-22 16:33:47 16 28 17.7
003A58BA 2019-04-22 15:59:20 16 28 17.9
003A58BA 2019-04-22 15:24:54 15.8 28 17.9
003A58BA 2019-04-22 14:50:28 15.8 28 17.9
003A58BA 2019-04-22 14:15:57 15.8 28 18.1
003A58BA 2019-04-22 13:41:29 15.8 28 18.4
003A58BA 2019-04-22 13:06:57 15.8 28 18.4
003A58BA 2019-04-22 12:32:29 15.8 28 18.3
003A58BA 2019-04-22 11:58:02 15.7 28 18.5
003A58BA 2019-04-22 11:23:32 15.8 28 18.6
003A58BA 2019-04-22 10:49:03 15.8 28 18.6
003A58BA 2019-04-22 10:14:35 15.6 28 18.5
003A58BA 2019-04-22 09:40:06 15.6 27 18.6
003A58BA 2019-04-22 09:05:38 15.6 27 18.6
003A58BA 2019-04-22 08:31:10 15.6 27 18.6
003A58BA 2019-04-22 07:56:42 15.6 27 18.8
003A58BA 2019-04-22 07:22:13 15.6 27 18.9
003A58BA 2019-04-22 06:47:45 15.6 27 18.9
003A58BA 2019-04-22 06:13:16 15.6 27 19.1
003A58BA 2019-04-22 05:38:47 15.7 27 19.1
003A58BA 2019-04-22 05:04:21 15.6 27 19.1
003A58BA 2019-04-22 04:29:50 15.6 27 19
003A58BA 2019-04-22 03:55:20 15.6 27 19.1
003A58BA 2019-04-22 03:20:51 15.6 27 19.3
003A58BA 2019-04-22 02:46:22 15.6 27 19.4
003A58BA 2019-04-22 02:11:53 15.6 27 19.5
003A58BA 2019-04-22 01:37:23 15.6 27 19.6
003A58BA 2019-04-22 01:02:58 15.5 27 19.7
003A58BA 2019-04-22 00:28:24 15.6 27 19.8
003A58BA 2019-04-21 23:53:56 15.6 27 19.8
003A58BA 2019-04-21 23:19:27 15.4 27 20
003A58BA 2019-04-21 22:44:58 15.5 27 20.3
003A58BA 2019-04-21 22:10:28 15.6 27 20.5
003A58BA 2019-04-21 21:35:59 15.5 27 20.4
003A58BA 2019-04-21 21:01:30 15.6 27 20.3
003A58BA 2019-04-21 20:27:02 15.5 27 20.2
003A58BA 2019-04-21 19:52:34 15.5 27 20.2
003A58BA 2019-04-21 19:18:05 15.6 27 20
003A58BA 2019-04-21 18:43:38 15.5 27 19.9
003A58BA 2019-04-21 18:09:10 15.4 27 19.8
003A58BA 2019-04-21 17:34:43 15.4 27 19.7
003A58BA 2019-04-21 17:00:15 15.4 27 19.6
003A58BA 2019-04-21 16:25:48 15.4 27 19.5
003A58BA 2019-04-21 15:51:21 15.4 27 19.4
003A58BA 2019-04-21 15:16:52 15.4 27 19.4
003A58BA 2019-04-21 14:42:23 15.4 27 19.5
003A58BA 2019-04-21 14:07:55 15.4 27 19.6
003A58BA 2019-04-21 13:33:28 15.4 27 19.5
003A58BA 2019-04-21 12:59:00 15.4 27 19.3
003A58BA 2019-04-21 12:24:33 15.4 27 19.2
003A58BA 2019-04-21 11:50:06 15.4 26 19
003A58BA 2019-04-21 11:15:38 15.4 26 18.8
003A58BA 2019-04-21 10:41:11 15.4 26 18.7
003A58BA 2019-04-21 10:06:43 15.4 26 18.5
003A58BA 2019-04-21 09:32:15 15.4 26 18.4
003A58BA 2019-04-21 08:57:48 15.6 26 17.8
003A58BA 2019-04-21 08:23:20 15.6 26 17.3
003A58BA 2019-04-21 07:48:52 15.6 26 17.1
003A58BA 2019-04-21 07:14:24 15.6 26 17.1
003A58BA 2019-04-21 06:39:57 15.6 26 17.1
003A58BA 2019-04-21 06:05:30 15.6 26 17.1
003A58BA 2019-04-21 05:31:03 15.6 26 17.1
003A58BA 2019-04-21 04:56:37 15.6 26 17
003A58BA 2019-04-21 04:22:09 15.6 26 17
003A58BA 2019-04-21 03:47:41 15.6 26 17.2
003A58BA 2019-04-21 03:13:14 15.6 26 17.1
003A58BA 2019-04-21 02:38:47 15.6 26 17
003A58BA 2019-04-21 02:04:20 15.6 26 17.3
003A58BA 2019-04-21 01:29:51 15.6 26 17.2
003A58BA 2019-04-21 00:55:23 15.6 26 17.2
003A58BA 2019-04-21 00:20:54 15.6 26 16.9
003A58BA 2019-04-20 23:46:25 15.6 26 16.8
003A58BA 2019-04-20 23:11:57 15.4 26 16.6
003A58BA 2019-04-20 22:37:29 15.5 26 16.6
003A58BA 2019-04-20 22:03:00 15.5 26 16.7
003A58BA 2019-04-20 21:28:30 15.5 26 16.5
003A58BA 2019-04-20 20:54:00 15.6 26 16.6
003A58BA 2019-04-20 20:19:31 15.6 26 16.7
003A58BA 2019-04-20 19:45:02 15.5 26 16.6
003A58BA 2019-04-20 19:10:32 15.6 26 16.7
003A58BA 2019-04-20 18:36:03 15.6 26 16.7
003A58BA 2019-04-20 18:01:34 15.6 26 16.5
003A58BA 2019-04-20 17:27:06 15.5 26 16.2
003A58BA 2019-04-20 16:52:37 15.5 26 16.2
003A58BA 2019-04-20 16:18:08 15.5 26 16.3
003A58BA 2019-04-20 15:43:39 15.6 26 16.3
003A58BA 2019-04-20 15:09:10 15.5 25 16.3
003A58BA 2019-04-20 14:34:41 15.4 25 16.3
003A58BA 2019-04-20 14:00:13 15.4 25 16.2
003A58BA 2019-04-20 13:25:43 15.4 25 16
003A58BA 2019-04-20 12:51:15 15.4 25 16
003A58BA 2019-04-20 12:16:46 15.4 25 16.1
003A58BA 2019-04-20 11:42:17 15.4 25 15.8
003A58BA 2019-04-20 11:07:48 15.4 25 15.8
003A58BA 2019-04-20 10:33:19 15.4 25 15.7
003A58BA 2019-04-20 09:58:50 15.4 25 15.9
003A58BA 2019-04-20 09:24:22 15.5 25 15.8
003A58BA 2019-04-20 08:49:54 15.6 25 16
003A58BA 2019-04-20 08:15:25 15.6 25 16.2
003A58BA 2019-04-20 07:40:57 15.6 25 15.8
003A58BA 2019-04-20 07:06:28 15.7 25 15.8
003A58BA 2019-04-20 06:31:59 15.6 25 15.8
003A58BA 2019-04-20 05:57:31 15.6 25 15.7
003A58BA 2019-04-20 05:23:02 15.6 25 15.8
003A58BA 2019-04-20 04:48:34 15.6 25 15.9
003A58BA 2019-04-20 04:14:07 15.6 25 16.5
003A58BA 2019-04-20 03:39:40 15.6 25 16.9
003A58BA 2019-04-20 03:05:12 15.6 25 17.4
003A58BA 2019-04-20 02:30:45 15.8 25 17.4
003A58BA 2019-04-20 01:56:17 15.8 25 17.5
003A58BA 2019-04-20 01:21:48 15.8 25 17.6
003A58BA 2019-04-20 00:47:23 15.8 25 17.8
003A58BA 2019-04-20 00:12:55 15.9 25 18
003A58BA 2019-04-19 23:38:24 16 25 18.2
003A58BA 2019-04-19 23:03:56 16 25 18.4
003A58BA 2019-04-19 22:29:32 16 25 18.3
003A58BA 2019-04-19 21:55:00 16 25 18.6
003A58BA 2019-04-19 21:20:31 16 25 18.9
003A58BA 2019-04-19 20:46:02 16 25 19
003A58BA 2019-04-19 20:11:35 16.1 25 19.2
003A58BA 2019-04-19 19:37:07 16.2 25 19.4
003A58BA 2019-04-19 19:02:40 16.3 24 19.5
003A58BA 2019-04-19 18:28:12 16.3 24 19.8
003A58BA 2019-04-19 17:53:44 16.3 24 19.9
003A58BA 2019-04-19 17:19:17 16.2 24 20.1
003A58BA 2019-04-19 16:44:49 16.2 24 20.3
003A58BA 2019-04-19 16:10:22 16 24 20.5
003A58BA 2019-04-19 15:35:57 16 24 20.7
003A58BA 2019-04-19 15:01:27 16 24 20.7
003A58BA 2019-04-19 14:27:01 16 24 20.7
003A58BA 2019-04-19 13:52:34 15.9 24 20.7
003A58BA 2019-04-19 13:18:07 15.8 24 20.7
003A58BA 2019-04-19 12:43:40 15.8 24 20.6
003A58BA 2019-04-19 12:09:13 15.8 24 20.7
003A58BA 2019-04-19 11:34:45 15.8 24 20.9
003A58BA 2019-04-19 11:00:18 15.7 24 20.9
003A58BA 2019-04-19 10:25:50 15.7 24 21
003A58BA 2019-04-19 09:51:23 15.6 24 21
003A58BA 2019-04-19 09:16:56 15.6 24 20.9
003A58BA 2019-04-19 08:42:30 15.6 24 20.8
003A58BA 2019-04-19 08:08:02 15.6 24 20.7
003A58BA 2019-04-19 07:33:35 15.6 24 20.7
003A58BA 2019-04-19 06:59:07 15.8 24 20.8
003A58BA 2019-04-19 06:24:41 15.8 24 21.2
003A58BA 2019-04-19 05:50:13 15.8 24 21.9
003A58BA 2019-04-19 05:15:47 15.8 24 22.1
003A58BA 2019-04-19 04:41:20 15.8 24 22.4
003A58BA 2019-04-19 04:06:52 15.8 24 22.8
003A58BA 2019-04-19 03:32:24 15.8 24 23.1
003A58BA 2019-04-19 02:57:57 15.8 24 23.3
003A58BA 2019-04-19 02:23:30 15.8 23 23.7
003A58BA 2019-04-19 01:49:01 16 23 23.8
003A58BA 2019-04-19 01:14:34 16 23 24.1
003A58BA 2019-04-19 00:40:06 16.1 23 24.3
003A58BA 2019-04-19 00:05:37 16.3 23 24.5
003A58BA 2019-04-18 23:31:08 16.3 23 24.6
003A58BA 2019-04-18 22:56:38 16.4 23 24.7
003A58BA 2019-04-18 22:22:10 16.5 23 24.8
003A58BA 2019-04-18 21:47:42 16.5 23 24.9
003A58BA 2019-04-18 21:13:15 16.5 23 24.8
003A58BA 2019-04-18 20:38:47 16.6 23 24.9
003A58BA 2019-04-18 20:04:20 16.7 23 25
003A58BA 2019-04-18 19:29:52 16.7 23 25.1
003A58BA 2019-04-18 18:55:26 16.7 23 25.3
003A58BA 2019-04-18 18:20:59 16.7 23 25.4
003A58BA 2019-04-18 17:46:31 16.7 23 25.5
003A58BA 2019-04-18 17:12:02 16.6 23 25.6
003A58BA 2019-04-18 16:37:34 16.5 23 25.7
003A58BA 2019-04-18 16:03:07 16.5 23 25.6
003A58BA 2019-04-18 15:28:41 16.5 23 25.4
003A58BA 2019-04-18 14:54:13 16.4 23 25.3
003A58BA 2019-04-18 14:19:45 16.3 23 25.2
003A58BA 2019-04-18 13:45:18 16.2 23 25.1
003A58BA 2019-04-18 13:10:52 16 23 24.9
003A58BA 2019-04-18 12:36:26 16 23 24.8
003A58BA 2019-04-18 12:02:00 16 23 24.4
003A58BA 2019-04-18 11:27:31 16 23 24.3
003A58BA 2019-04-18 10:53:04 16 23 24
003A58BA 2019-04-18 10:18:36 16 23 23.9
003A58BA 2019-04-18 09:44:08 15.8 23 23.7
003A58BA 2019-04-18 09:09:41 15.8 22 23.5
003A58BA 2019-04-18 08:35:13 16 22 23.6
003A58BA 2019-04-18 08:00:45 16.3 23 23.4
003A58BA 2019-04-18 07:26:18 16.1 22 23.4
003A58BA 2019-04-18 06:51:49 16.1 22 23.5
003A58BA 2019-04-18 06:17:21 16 22 23.5
003A58BA 2019-04-18 05:42:53 16 22 23.6
003A58BA 2019-04-18 05:08:25 15.9 22 23.5
003A58BA 2019-04-18 04:33:57 15.9 22 23.5
003A58BA 2019-04-18 03:59:29 15.9 22 23.7
003A58BA 2019-04-18 03:25:00 15.8 22 23.5
003A58BA 2019-04-18 02:50:33 15.8 22 23.3
003A58BA 2019-04-18 02:16:05 16 22 23
003A58BA 2019-04-18 01:41:37 16 22 22.9
003A58BA 2019-04-18 01:07:08 16.2 22 22.6
003A58BA 2019-04-18 00:32:40 16.3 22 22.3
003A58BA 2019-04-17 23:58:11 16.5 22 22.2
003A58BA 2019-04-17 23:23:42 16.5 22 22
003A58BA 2019-04-17 22:49:15 16.5 22 21.8
003A58BA 2019-04-17 22:14:49 16.6 22 21.8
003A58BA 2019-04-17 21:40:19 16.5 22 21.9
003A58BA 2019-04-17 21:05:50 16.5 22 22
003A58BA 2019-04-17 20:31:21 16.3 22 21.9
003A58BA 2019-04-17 19:56:51 16.3 22 21.8
003A58BA 2019-04-17 19:22:23 16.3 22 21.8
003A58BA 2019-04-17 18:47:53 16.3 22 21.6
003A58BA 2019-04-17 18:13:24 16.3 22 21.6
003A58BA 2019-04-17 17:38:55 16.3 22 21.7
003A58BA 2019-04-17 17:04:26 16.3 22 21.5
003A58BA 2019-04-17 16:29:59 16.2 22 21.7
003A58BA 2019-04-17 15:55:30 16 21 21.4
003A58BA 2019-04-17 15:21:02 16 21 21.2
003A58BA 2019-04-17 14:46:34 16.1 21 21.3
003A58BA 2019-04-17 14:12:06 16.1 21 20.7
003A58BA 2019-04-17 13:37:37 16.3 21 21.4
003A58BA 2019-04-17 13:03:09 16.5 21 21.4
003A58BA 2019-04-17 12:28:41 16.5 21 21.4
003A58BA 2019-04-17 11:54:13 16.3 21 21.4
003A58BA 2019-04-17 11:19:46 16.3 21 22.4
003A58BA 2019-04-17 10:45:18 16.3 21 22.5
003A58BA 2019-04-17 10:10:50 16.3 21 22.6
003A58BA 2019-04-17 09:36:22 16.3 21 22.7
003A58BA 2019-04-17 09:01:53 16.3 21 22.7
003A58BA 2019-04-17 08:27:25 16.5 21 22.8
003A58BA 2019-04-17 07:52:57 16.7 21 22.8
003A58BA 2019-04-17 07:18:28 16.9 21 22.7
003A58BA 2019-04-17 06:44:01 17.1 21 22.5
003A58BA 2019-04-17 06:09:32 17.2 21 22.5
003A58BA 2019-04-17 05:35:05 17.2 21 22.5
003A58BA 2019-04-17 05:00:37 17.3 21 22.5
003A58BA 2019-04-17 04:26:08 17.3 21 22.4
003A58BA 2019-04-17 03:51:38 17.4 21 22.3
003A58BA 2019-04-17 03:17:09 17.5 21 22
003A58BA 2019-04-17 02:42:40 17.5 21 21.9
003A58BA 2019-04-17 02:08:12 17.5 21 21.5
003A58BA 2019-04-17 01:33:43 17.5 21 21.4
003A58BA 2019-04-17 00:59:15 17.5 21 21.3
003A58BA 2019-04-17 00:24:48 17.3 21 20.8
003A58BA 2019-04-16 23:50:19 17.3 21 20.7
003A58BA 2019-04-16 23:15:50 17.1 21 19.9
003A58BA 2019-04-16 22:41:22 17.3 20 20.1
003A58BA 2019-04-16 22:06:51 17.8 20 20.1
003A58BA 2019-04-16 21:32:24 18 20 20.4
003A58BA 2019-04-16 20:57:56 18.2 20 18.5
003A58BA 2019-04-16 20:23:29 18.4 20 18.6
003A58BA 2019-04-16 19:49:01 18.6 20 18.3
003A58BA 2019-04-16 19:14:33 18.4 20 18
003A58BA 2019-04-16 18:40:07 18.4 20 18.2
003A58BA 2019-04-16 18:05:39 18.4 20 17.9
003A58BA 2019-04-16 17:31:12 18.6 20 18.2
003A58BA 2019-04-16 16:56:45 18.8 20 18.1
003A58BA 2019-04-16 15:47:50 19.2 20 18.1
003A58BA 2019-04-16 15:13:22 19.5 20 18.4
003A58BA 2019-04-16 14:38:54 20.1 20 18.3
003A58BA 2019-04-16 14:04:26 21.2 20 18.1
003A58BA 2019-04-16 13:30:01 21.2 20 18.2
003A58BA 2019-04-16 12:55:29 21.2 20 18.2
003A58BA 2019-04-16 12:21:03 21.1 20 18.5
003A58BA 2019-04-16 11:46:32 21 20 20.4
003A58BA 2019-04-16 11:12:04 21 20 20.5
003A58BA 2019-04-16 10:37:35 21 20 20.5
003A58BA 2019-04-16 10:03:06 21 20 20.5
003A58BA 2019-04-16 09:28:37 21 20 20.8
003A58BA 2019-04-16 08:54:09 21 20 20.8
003A58BA 2019-04-16 08:19:41 21 20 20.9
003A58BA 2019-04-16 07:45:14 21 20 20.6
003A58BA 2019-04-16 07:10:45 21 20 20.8
003A58BA 2019-04-16 06:36:18 21 20 20.6
003A58BA 2019-04-16 06:01:50 21 20 20.5
003A58BA 2019-04-16 05:27:22 21 20 20.7
003A58BA 2019-04-16 04:52:54 21 20 20.6
003A58BA 2019-04-16 04:18:25 21 20 20.6
003A58BA 2019-04-16 03:43:56 21 20 20.4
003A58BA 2019-04-16 03:09:30 21 20 20.4
003A58BA 2019-04-16 02:34:59 21 19 20.2
003A58BA 2019-04-16 02:00:31 21 19 20.4
003A58BA 2019-04-16 01:26:03 21 19 21.7
003A58BA 2019-04-16 00:51:35 21 19 21.8
003A58BA 2019-04-16 00:17:07 21 19 22.3
003A58BA 2019-04-15 23:42:41 21.1 19 22.6
003A58BA 2019-04-15 23:08:11 21.1 19 22.8
003A58BA 2019-04-15 22:33:42 21.1 19 23.2
003A58BA 2019-04-15 21:59:15 21.1 19 23.8
003A58BA 2019-04-15 21:24:46 21.2 19 23.4
003A58BA 2019-04-15 20:50:17 21.1 19 23.6
003A58BA 2019-04-15 20:15:50 21.1 19 23.9
003A58BA 2019-04-15 19:41:22 21 19 24.3
003A58BA 2019-04-15 19:06:54 21 19 24.4
003A58BA 2019-04-15 18:32:26 21.1 19 24.8
003A58BA 2019-04-15 17:57:58 21.2 19 25.2
003A58BA 2019-04-15 17:23:30 21.2 18 25.4
003A58BA 2019-04-15 16:49:02 21.2 18 25.8
003A58BA 2019-04-15 16:14:33 21.4 18 26.2
003A58BA 2019-04-15 15:40:05 21.4 18 26.3
003A58BA 2019-04-15 15:05:37 21.5 18 26.4
003A58BA 2019-04-15 14:31:09 21.6 18 26.5
003A58BA 2019-04-15 13:56:41 21.7 18 26.5
003A58BA 2019-04-15 13:22:13 21.8 17 26.7
003A58BA 2019-04-15 12:47:44 22.1 17 27
003A58BA 2019-04-15 12:13:16 22.4 17 27.2
003A58BA 2019-04-15 11:38:48 22.2 16 27.4
003A58BA 2019-04-15 11:04:19 22.2 16 27.4
003A58BA 2019-04-15 10:29:52 22.2 16 27.5
003A58BA 2019-04-15 09:55:23 22.1 17 27.4
003A58BA 2019-04-15 09:20:56 22 17 27.5
003A58BA 2019-04-15 08:46:27 22 16 27.6
003A58BA 2019-04-15 08:11:59 21.9 16 27.6
003A58BA 2019-04-15 07:37:30 21.8 17 27.5
003A58BA 2019-04-15 07:03:01 21.8 17 27.5
003A58BA 2019-04-15 06:28:32 21.8 17 27.6
003A58BA 2019-04-15 05:54:04 21.8 17 27.6
003A58BA 2019-04-15 05:19:34 21.8 17 27.5
003A58BA 2019-04-15 04:45:05 21.8 17 27.5
003A58BA 2019-04-15 04:10:38 21.8 17 27.5
003A58BA 2019-04-15 03:36:09 21.8 17 27.3
003A58BA 2019-04-15 03:01:41 21.8 17 27.3
003A58BA 2019-04-15 02:27:12 21.8 17 27.1
003A58BA 2019-04-15 01:52:42 21.8 17 27.1
003A58BA 2019-04-15 01:18:11 21.8 17 27
003A58BA 2019-04-15 00:43:42 21.8 17 27.1
003A58BA 2019-04-15 00:09:13 21.8 17 27.1
003A58BA 2019-04-14 23:34:43 21.8 17 27.2
003A58BA 2019-04-14 23:00:16 21.8 17 27.2
003A58BA 2019-04-14 22:25:48 21.8 17 27.1
003A58BA 2019-04-14 21:51:18 21.8 18 27.2
003A58BA 2019-04-14 21:16:50 21.9 18 27.3
003A58BA 2019-04-14 20:42:21 21.8 18 27.1
003A58BA 2019-04-14 20:07:51 21.9 18 27.1
003A58BA 2019-04-14 19:33:22 21.9 18 27.1
003A58BA 2019-04-14 18:58:53 21.9 18 27.1
003A58BA 2019-04-14 18:24:24 21.9 18 27.2
003A58BA 2019-04-14 17:49:55 21.8 18 27.3
003A58BA 2019-04-14 17:15:26 21.8 18 27.2
003A58BA 2019-04-14 16:40:58 21.8 18 27.2
003A58BA 2019-04-14 16:06:28 21.8 18 27.1
003A58BA 2019-04-14 15:31:59 21.8 18 27.1
003A58BA 2019-04-14 14:57:30 21.8 18 27.1
003A58BA 2019-04-14 14:23:00 21.8 18 27.1
003A58BA 2019-04-14 13:48:30 21.8 18 27.1
003A58BA 2019-04-14 13:13:59 21.8 18 27
003A58BA 2019-04-14 12:39:28 21.8 18 27.1
003A58BA 2019-04-14 12:04:57 21.8 18 27.1
003A58BA 2019-04-14 11:30:27 21.8 18 27.1
003A58BA 2019-04-14 10:55:58 21.8 18 27.4
003A58BA 2019-04-14 10:21:29 21.8 18 27.3
003A58BA 2019-04-14 09:46:59 21.8 18 27.4
003A58BA 2019-04-14 09:12:29 21.8 18 27.4
003A58BA 2019-04-14 08:38:01 21.8 18 27.6
003A58BA 2019-04-14 08:03:32 21.8 18 27.6
003A58BA 2019-04-14 07:29:03 21.8 18 27.4
003A58BA 2019-04-14 06:54:34 21.8 18 27.4
003A58BA 2019-04-14 06:20:06 21.8 17 27.5
003A58BA 2019-04-14 05:45:36 21.8 17 27.5
003A58BA 2019-04-14 05:11:08 21.8 17 27.5
003A58BA 2019-04-14 04:36:39 21.8 17 27.4
003A58BA 2019-04-14 04:02:10 21.9 17 27.3
003A58BA 2019-04-14 03:27:40 21.9 17 27.1
003A58BA 2019-04-14 02:53:11 21.9 18 27
003A58BA 2019-04-14 02:18:42 22 18 27.1
003A58BA 2019-04-14 01:44:12 22 18 27.3
003A58BA 2019-04-14 01:09:40 22 18 27.3
003A58BA 2019-04-14 00:35:12 22 18 27.3
003A58BA 2019-04-14 00:00:44 22 18 27.3
003A58BA 2019-04-13 23:26:15 22 17 27.5
003A58BA 2019-04-13 22:51:47 22 17 27.6
003A58BA 2019-04-13 22:17:18 22 17 27.5
003A58BA 2019-04-13 21:42:49 22 17 27.6
003A58BA 2019-04-13 21:08:19 22.1 17 27.5
003A58BA 2019-04-13 20:33:50 22.1 17 27.3
003A58BA 2019-04-13 19:59:22 22.1 17 27.4
003A58BA 2019-04-13 19:24:53 22.2 17 27.4
003A58BA 2019-04-13 18:50:24 22.2 17 27.4
003A58BA 2019-04-13 18:15:56 22.2 17 27.3
003A58BA 2019-04-13 17:41:27 22.2 18 27.2
003A58BA 2019-04-13 17:06:59 22.2 18 27.2
003A58BA 2019-04-13 16:32:30 22.2 18 27
003A58BA 2019-04-13 15:58:01 22.2 18 27.1
003A58BA 2019-04-13 15:23:32 22.2 18 27
003A58BA 2019-04-13 14:49:03 22.2 18 27
003A58BA 2019-04-13 14:14:35 22.2 18 27.1
003A58BA 2019-04-13 13:40:06 22.2 18 27
003A58BA 2019-04-13 13:05:37 22.2 18 27.3
003A58BA 2019-04-13 12:31:07 22.2 18 27.5
003A58BA 2019-04-13 11:56:37 22.3 18 27.4
003A58BA 2019-04-13 11:22:09 22.2 18 27.3
003A58BA 2019-04-13 10:47:40 22.2 18 27.2
003A58BA 2019-04-13 10:13:11 22.2 18 27.3
003A58BA 2019-04-13 09:38:42 22.3 18 27.3
003A58BA 2019-04-13 09:04:12 22.3 17 27
003A58BA 2019-04-13 08:29:44 22.2 17 27.1
003A58BA 2019-04-13 07:55:14 22.3 17 27.3
003A58BA 2019-04-13 07:20:45 22.3 17 27.2
003A58BA 2019-04-13 06:46:15 22.3 17 27.4
003A58BA 2019-04-13 06:11:46 22.2 17 27.4
003A58BA 2019-04-13 05:37:18 22.3 17 27.4
003A58BA 2019-04-13 05:02:49 22.3 17 27.2
003A58BA 2019-04-13 04:28:21 22.4 17 27.4
003A58BA 2019-04-13 03:53:52 22.4 17 27.3
003A58BA 2019-04-13 03:19:23 22.5 17 27.3
003A58BA 2019-04-13 02:44:54 22.5 18 27.3
003A58BA 2019-04-13 02:10:25 22.5 18 27.4
003A58BA 2019-04-13 01:35:56 22.5 18 27.2
003A58BA 2019-04-13 01:01:27 22.5 18 27.3
003A58BA 2019-04-13 00:26:57 22.5 18 27.4
003A58BA 2019-04-12 23:52:28 22.6 18 27.3
003A58BA 2019-04-12 23:17:59 22.7 18 27.4
003A58BA 2019-04-12 22:43:29 22.7 18 27.2
003A58BA 2019-04-12 22:09:00 22.7 19 27.2
003A58BA 2019-04-12 21:34:31 22.8 19 27.2
003A58BA 2019-04-12 21:00:00 22.9 19 27.3
003A58BA 2019-04-12 20:25:30 22.9 19 27.4
003A58BA 2019-04-12 19:50:59 22.9 18 27.4
003A58BA 2019-04-12 19:16:31 22.9 18 27.4
003A58BA 2019-04-12 18:42:00 22.9 17 27.7
003A58BA 2019-04-12 18:07:30 23 17 27.6
003A58BA 2019-04-12 17:33:00 23 17 27.2
003A58BA 2019-04-12 16:58:30 22.9 17 27.4
003A58BA 2019-04-12 16:23:59 22.9 18 26.8
003A58BA 2019-04-12 15:49:30 22.8 18 26.9
003A58BA 2019-04-12 15:14:59 22.7 19 26.7
003A58BA 2019-04-12 14:40:30 22.5 19 27.7
003A58BA 2019-04-12 14:06:00 22 20 25.8
003A58BA 2019-04-12 13:31:31 21.4 22 24.6
003A58BA 2019-04-12 12:57:01 20.5 30 0